Weather History for KMCD - March, 2013

Change the Weather History Date:

Monday, March 4, 2013

  Actual Average Record
Temperature  
Mean Temperature 14 °F -  
Max Temperature 24 °F 26 °F 52 °F (1974)
Min Temperature 5 °F 13 °F -10 °F (1978)
Degree Days  
Heating Degree Days 50    
Moisture  
Dew Point 7 °F    
Average Humidity 67    
Maximum Humidity 88    
Minimum Humidity 38    
Precipitation  
Precipitation 0.00 in - - ()
Sea Level Pressure  
Sea Level Pressure 30.11 in    
Wind  
Wind Speed 6 mph (NNW)    
Max Wind Speed 10 mph    
Max Gust Speed -    
Visibility 10 miles    
Events      
Averages and records for this station are not official NWS values.
T = Trace of Precipitation, MM = Missing Value Source: NWS Daily Summary

Daily Weather History Graph

Daily Weather History Graph

Search for Another Location

Airport or City:

Trip Planner

Search our weather history database for the weather conditions in past years. The results will help you decide how hot, cold, wet, or windy it might be!

Date:

Astronomy

Mar. 04, 2013 Rise Set
Actual Time 7:11 AM EST 6:29 PM EST
Civil Twilight 6:41 AM EST 6:59 PM EST
Nautical Twilight 6:07 AM EST 7:34 PM EST
Astronomical Twilight 5:32 AM EST 8:08 PM EST
Moon 1:33 AM EST (3/4) 10:57 AM EST (3/4)
Length of Visible Light 12h 18m
Length of Day
11h 18m
Waning Gibbous, 52% of the Moon is Illuminated
Mar 4
Waning Gibbous
Mar 4
Last Quarter
Mar 11
New
Mar 19
First Quarter
Mar 27
Full

Hourly Weather History & Observations

Time (EST) Temp. Windchill Dew Point Humidity Pressure Visibility Wind Dir Wind Speed Gust Speed Precip Events Conditions
12:13 AM 11.7 °F 1.1 °F 8.6 °F 88% 30.05 in 10.0 mi North 6.9 mph - N/A   Clear
12:33 AM 11.5 °F 2.1 °F 8.6 °F 88% 30.06 in 10.0 mi North 5.8 mph - N/A   Clear
1:13 AM 11.3 °F 5.1 °F 8.4 °F 88% 30.07 in 10.0 mi North 3.5 mph - N/A   Clear
1:53 AM 10.2 °F 0.6 °F 7.0 °F 87% 30.07 in 10.0 mi North 5.8 mph - N/A   Clear
2:13 AM 9.3 °F 2.8 °F 5.9 °F 86% 30.08 in 10.0 mi North 3.5 mph - N/A   Clear
2:34 AM 9.5 °F 1.2 °F 5.9 °F 85% 30.08 in 10.0 mi North 4.6 mph - N/A   Clear
2:53 AM 9.9 °F 0.2 °F 5.9 °F 84% 30.08 in 10.0 mi NNW 5.8 mph - N/A   Clear
3:13 AM 8.2 °F -0.3 °F 3.7 °F 82% 30.08 in 10.0 mi North 4.6 mph - N/A   Clear
3:34 AM 8.1 °F -2.0 °F 3.7 °F 83% 30.08 in 10.0 mi North 5.8 mph - N/A   Clear
4:13 AM 9.0 °F 0.6 °F 5.0 °F 84% 30.08 in 10.0 mi North 4.6 mph - N/A   Clear
4:34 AM 8.4 °F -2.8 °F 3.6 °F 81% 30.08 in 10.0 mi North 6.9 mph - N/A   Clear
4:53 AM 8.4 °F -0.1 °F 3.6 °F 81% 30.09 in 10.0 mi NNW 4.6 mph - N/A   Clear
5:13 AM 7.9 °F -2.2 °F 3.4 °F 82% 30.10 in 10.0 mi North 5.8 mph - N/A   Clear
5:34 AM 8.2 °F -1.8 °F 3.6 °F 81% 30.11 in 10.0 mi North 5.8 mph - N/A   Clear
5:53 AM 7.9 °F -2.2 °F 3.2 °F 81% 30.11 in 10.0 mi NNW 5.8 mph - N/A   Clear
6:13 AM 7.2 °F 0.3 °F 2.7 °F 82% 30.11 in 10.0 mi NNW 3.5 mph - N/A   Clear
7:13 AM 6.4 °F -5.2 °F 2.3 °F 83% 30.11 in 10.0 mi NNW 6.9 mph - N/A   Clear
7:34 AM 5.5 °F -7.4 °F 1.6 °F 84% 30.11 in 10.0 mi North 8.1 mph - N/A   Clear
7:53 AM 8.1 °F -4.3 °F 3.4 °F 81% 30.12 in 10.0 mi North 8.1 mph - N/A   Clear
8:13 AM 10.0 °F 0.4 °F 4.8 °F 79% 30.12 in 10.0 mi North 5.8 mph - N/A   Clear
8:34 AM 10.6 °F 1.0 °F 4.8 °F 78% 30.13 in 10.0 mi North 5.8 mph - N/A   Clear
8:53 AM 11.5 °F 0.9 °F 5.5 °F 77% 30.13 in 10.0 mi North 6.9 mph - N/A   Clear
9:13 AM 12.6 °F 6.5 °F 5.2 °F 72% 30.14 in 10.0 mi North 3.5 mph - N/A   Clear
9:33 AM 13.6 °F 6.0 °F 5.4 °F 70% 30.13 in 10.0 mi North 4.6 mph - N/A   Clear
9:53 AM 14.7 °F 7.3 °F 5.4 °F 66% 30.14 in 10.0 mi North 4.6 mph - N/A   Clear
10:13 AM 16.2 °F 4.7 °F 5.7 °F 64% 30.14 in 10.0 mi North 9.2 mph - N/A   Clear
10:33 AM 17.4 °F 9.1 °F 5.7 °F 60% 30.14 in 10.0 mi North 5.8 mph - N/A   Clear
10:53 AM 18.5 °F 10.4 °F 5.5 °F 57% 30.14 in 10.0 mi North 5.8 mph - N/A   Clear
11:14 AM 19.6 °F 10.6 °F 5.7 °F 55% 30.14 in 10.0 mi North 6.9 mph - N/A   Clear
11:33 AM 20.8 °F 10.4 °F 5.5 °F 52% 30.14 in 10.0 mi North 9.2 mph - N/A   Clear
11:53 AM 22.1 °F 14.7 °F 5.7 °F 49% 30.14 in 10.0 mi North 5.8 mph - N/A   Clear
12:13 PM 23.0 °F 18.4 °F 4.8 °F 46% 30.13 in 10.0 mi North 3.5 mph - N/A   Clear
12:33 PM 19.4 °F - 8.4 °F 62% 30.13 in 10.0 mi Calm Calm - N/A   Clear
12:53 PM 19.0 °F 11.1 °F 9.1 °F 65% 30.12 in 10.0 mi WSW 5.8 mph - N/A   Clear
1:13 PM 19.6 °F 10.6 °F 11.5 °F 71% 30.12 in 10.0 mi WSW 6.9 mph - N/A   Clear
1:53 PM 20.8 °F 11.2 °F 9.7 °F 62% 30.10 in 10.0 mi WSW 8.1 mph - N/A   Clear
2:13 PM 22.1 °F 14.7 °F 8.6 °F 56% 30.10 in 10.0 mi WSW 5.8 mph - N/A   Clear
2:33 PM 22.8 °F 13.6 °F 7.0 °F 51% 30.10 in 10.0 mi WSW 8.1 mph - N/A   Clear
2:53 PM 22.8 °F 12.9 °F 10.0 °F 58% 30.09 in 10.0 mi WSW 9.2 mph - N/A   Clear
3:13 PM 22.8 °F 12.2 °F 11.1 °F 61% 30.09 in 10.0 mi WSW 10.4 mph - N/A   Clear
3:33 PM 23.0 °F 13.1 °F 10.9 °F 60% 30.09 in 10.0 mi WSW 9.2 mph - N/A   Clear
3:53 PM 23.0 °F 14.7 °F 10.9 °F 60% 30.09 in 10.0 mi WSW 6.9 mph - N/A   Clear
4:13 PM 23.5 °F 14.5 °F 10.4 °F 57% 30.09 in 10.0 mi WSW 8.1 mph - N/A   Clear
4:33 PM 23.4 °F 17.4 °F 10.8 °F 59% 30.10 in 10.0 mi WSW 4.6 mph - N/A   Clear
4:54 PM 23.7 °F 17.8 °F 10.9 °F 58% 30.10 in 10.0 mi WSW 4.6 mph - N/A   Clear
5:13 PM 24.1 °F - 10.2 °F 56% 30.10 in 10.0 mi Calm Calm - N/A   Clear
5:33 PM 24.1 °F 19.7 °F 10.0 °F 55% 30.10 in 10.0 mi West 3.5 mph - N/A   Clear
5:53 PM 23.9 °F - 9.7 °F 55% 30.10 in 10.0 mi Calm Calm - N/A   Clear
6:13 PM 24.6 °F - 2.8 °F 39% 30.10 in 10.0 mi Calm Calm - N/A   Clear
6:34 PM 23.7 °F 15.6 °F 1.0 °F 38% 30.11 in 10.0 mi North 6.9 mph - N/A   Clear
6:53 PM 22.8 °F 14.5 °F 2.5 °F 42% 30.11 in 10.0 mi North 6.9 mph - N/A   Clear
7:13 PM 22.1 °F 13.7 °F 3.0 °F 44% 30.12 in 10.0 mi North 6.9 mph - N/A   Clear
7:53 PM 21.2 °F 13.6 °F 3.0 °F 46% 30.13 in 10.0 mi NNW 5.8 mph - N/A   Clear
8:13 PM 20.1 °F 12.3 °F 3.0 °F 48% 30.13 in 10.0 mi NNW 5.8 mph - N/A   Clear
8:34 PM 18.7 °F 7.8 °F 3.9 °F 53% 30.13 in 10.0 mi NNW 9.2 mph - N/A   Clear
8:53 PM 19.4 °F 10.4 °F 6.3 °F 57% 30.13 in 10.0 mi NNW 6.9 mph - N/A   Clear
9:34 PM 18.3 °F 8.2 °F 7.7 °F 63% 30.13 in 10.0 mi North 8.1 mph - N/A   Clear
9:53 PM 18.1 °F 7.9 °F 9.3 °F 68% 30.13 in 10.0 mi North 8.1 mph - N/A   Clear
10:13 PM 19.0 °F 10.0 °F 10.6 °F 70% 30.13 in 10.0 mi North 6.9 mph - N/A   Clear
10:34 PM 19.2 °F 12.5 °F 11.7 °F 72% 30.12 in 10.0 mi North 4.6 mph - N/A   Clear
10:53 PM 18.9 °F 9.8 °F 12.4 °F 76% 30.12 in 10.0 mi North 6.9 mph - N/A   Clear
11:13 PM 19.4 °F 9.5 °F 13.5 °F 78% 30.12 in 10.0 mi North 8.1 mph - N/A   Clear
11:33 PM 19.4 °F 12.8 °F 13.8 °F 79% 30.12 in 10.0 mi NNE 4.6 mph - N/A   Clear
11:53 PM 20.1 °F 10.3 °F 14.9 °F 80% 30.13 in 10.0 mi NNE 8.1 mph - N/A   Clear